KF4UQS-14 Weather Reports


time (UTC)temp
F
wind
direction
speed
knots
gust
knots
rain 1hr
in
rain 24hr
in
rain mn
in
humidity
%
barometer
mb
20260504012425 50 156 1.7 1.7 0.00 0.00 0.00 75 1018.2
20260504011922 50 121 1.7 1.7 0.00 0.00 0.00 75 1018.0
20260504011419 49 81 0.9 0.9 0.00 0.00 0.00 75 1018.0
20260504010914 50 47 0.0 0.9 0.00 0.00 0.00 74 1017.9
20260504010411 50 92 0.0 0.9 0.00 0.00 0.00 73 1018.0
20260504005907 51 95 0.9 0.9 0.00 0.00 0.00 72 1017.8
20260504005403 51 139 0.9 1.7 0.00 0.00 0.00 71 1017.8
20260504004901 51 82 0.9 0.9 0.00 0.00 0.00 70 1017.7
20260504004359 52 91 0.9 0.9 0.00 0.00 0.00 68 1017.6
20260504003855 52 130 1.7 1.7 0.00 0.00 0.00 67 1017.4
20260504003352 52 170 2.6 2.6 0.00 0.00 0.00 67 1017.6
20260504002848 53 148 1.7 1.7 0.00 0.00 0.00 67 1017.5
20260504002345 53 160 1.7 1.7 0.00 0.00 0.00 67 1017.3
20260504001843 53 181 1.7 2.6 0.00 0.00 0.00 66 1017.2
20260504001340 54 149 2.6 3.5 0.00 0.00 0.00 64 1017.1
20260504000837 54 157 3.5 3.5 0.00 0.00 0.00 63 1016.9
20260504000334 54 140 4.3 6.1 0.00 0.00 0.00 62 1017.0
20260503235832 52 153 2.6 2.6 0.00 0.00 0.00 64 1016.7
20260503235329 53 78 0.0 0.0 0.00 0.00 0.00 64 1016.7
20260503234826 56 96 0.0 0.0 0.00 0.00 0.00 59 1016.6
20260503234324 60 61 0.0 0.0 0.00 0.00 0.00 51 1016.7
20260503233822 61 48 0.0 0.0 0.00 0.00 0.00 39 1016.6
20260503233317 61 8 0.9 0.9 0.00 0.00 0.00 36 1016.4
20260503232814 62 10 0.9 0.9 0.00 0.00 0.00 36 1016.3
20260503232311 62 358 0.9 1.7 0.00 0.00 0.00 36 1016.6
20260503231809 62 350 0.9 1.7 0.00 0.00 0.00 35 1016.4
20260503231306 62 309 1.7 1.7 0.00 0.00 0.00 35 1016.3
20260503230802 62 277 3.5 3.5 0.00 0.00 0.00 35 1016.4
20260503230259 62 323 2.6 2.6 0.00 0.00 0.00 34 1016.3
20260503225757 63 319 1.7 2.6 0.00 0.00 0.00 35 1016.3
20260503225252 63 336 1.7 2.6 0.00 0.00 0.00 34 1016.4
20260503224749 63 357 1.7 1.7 0.00 0.00 0.00 33 1016.2
20260503224247 63 312 3.5 3.5 0.00 0.00 0.00 32 1016.5
20260503223745 63 336 1.7 2.6 0.00 0.00 0.00 32 1016.3
20260503223242 63 296 2.6 2.6 0.00 0.00 0.00 32 1016.4
20260503222738 63 322 3.5 3.5 0.00 0.00 0.00 33 1016.5
20260503222236 63 332 4.3 6.1 0.00 0.00 0.00 32 1016.2
20260503221734 64 294 5.2 7.0 0.00 0.00 0.00 32 1016.1
20260503221232 64 303 5.2 7.0 0.00 0.00 0.00 31 1016.1
20260503220728 64 46 1.7 1.7 0.00 0.00 0.00 32 1016.1
20260503220225 64 290 5.2 7.0 0.00 0.00 0.00 32 1016.2
20260503215722 64 348 1.7 1.7 0.00 0.00 0.00 34 1016.1
20260503215219 64 357 2.6 2.6 0.00 0.00 0.00 32 1016.1
20260503214717 65 254 5.2 7.8 0.00 0.00 0.00 31 1016.2
20260503214213 64 306 4.3 5.2 0.00 0.00 0.00 32 1016.2
20260503213711 64 347 5.2 6.1 0.00 0.00 0.00 32 1016.2
20260503213208 64 344 3.5 3.5 0.00 0.00 0.00 31 1016.1
20260503212705 63 8 3.5 5.2 0.00 0.00 0.00 31 1016.2
20260503212203 63 347 5.2 6.1 0.00 0.00 0.00 31 1016.2
20260503211701 64 349 2.6 2.6 0.00 0.00 0.00 32 1016.1
20260503211156 64 307 8.7 11.3 0.00 0.00 0.00 32 1015.9
20260503210652 63 332 3.5 3.5 0.00 0.00 0.00 32 1016.1
20260503210149 63 338 5.2 7.0 0.00 0.00 0.00 31 1016.1
20260503205644 64 311 5.2 7.0 0.00 0.00 0.00 31 1016.1
20260503205141 64 332 2.6 2.6 0.00 0.00 0.00 34 1016.0
20260503204638 65 180 5.2 8.7 0.00 0.00 0.00 35 1016.1
20260503204135 63 320 4.3 5.2 0.00 0.00 0.00 33 1016.0
20260503203632 64 310 5.2 7.0 0.00 0.00 0.00 34 1016.0
20260503203130 63 6 5.2 6.1 0.00 0.00 0.00 32 1016.1
20260503202627 64 347 5.2 6.1 0.00 0.00 0.00 33 1016.1
20260503202125 63 192 0.9 1.7 0.00 0.00 0.00 35 1016.2
20260503201623 63 295 4.3 5.2 0.00 0.00 0.00 33 1016.4
20260503201119 63 353 9.6 11.3 0.00 0.00 0.00 33 1016.2
20260503200616 63 258 4.3 6.1 0.00 0.00 0.00 34 1016.3
20260503200112 62 332 5.2 7.0 0.00 0.00 0.00 35 1016.2
20260503195609 64 46 4.3 6.1 0.00 0.00 0.00 33 1016.4
20260503195106 63 4 1.7 1.7 0.00 0.00 0.00 33 1016.5
20260503194603 63 338 7.0 7.8 0.00 0.00 0.00 34 1016.5
20260503194058 63 12 1.7 2.6 0.00 0.00 0.00 36 1016.4
20260503193555 64 324 5.2 7.0 0.00 0.00 0.00 35 1016.5
20260503193050 63 345 10.4 13.0 0.00 0.00 0.00 34 1016.3
20260503192546 63 287 8.7 11.3 0.00 0.00 0.00 35 1016.7
20260503192043 63 196 3.5 3.5 0.00 0.00 0.00 39 1016.9
20260503191539 63 300 7.8 8.7 0.00 0.00 0.00 36 1016.8
20260503191036 62 354 7.0 7.8 0.00 0.00 0.00 36 1016.6
20260503190533 62 255 4.3 7.0 0.00 0.00 0.00 37 1016.9
20260503190031 61 278 7.8 11.3 0.00 0.00 0.00 36 1016.8
20260503185527 62 338 7.8 9.6 0.00 0.00 0.00 36 1017.0
20260503185026 62 30 5.2 7.8 0.00 0.00 0.00 35 1017.0
20260503184523 61 312 7.8 8.7 0.00 0.00 0.00 36 1017.2
20260503184019 61 338 4.3 7.8 0.00 0.00 0.00 36 1017.1
20260503183516 61 355 10.4 13.9 0.00 0.00 0.00 35 1017.0
20260503183013 61 3 16.5 20.9 0.00 0.00 0.00 36 1017.0
20260503182512 61 34 2.6 3.5 0.00 0.00 0.00 39 1017.2
20260503182009 61 2 5.2 6.1 0.00 0.00 0.00 37 1017.2
20260503181506 60 294 5.2 6.1 0.00 0.00 0.00 38 1017.2
20260503181002 61 300 4.3 5.2 0.00 0.00 0.00 39 1017.1
20260503180500 60 346 7.8 8.7 0.00 0.00 0.00 37 1017.3
20260503175956 60 345 6.1 7.0 0.00 0.00 0.00 38 1017.2
20260503175455 60 346 10.4 12.2 0.00 0.00 0.00 37 1017.2
20260503174951 60 353 5.2 7.8 0.00 0.00 0.00 39 1017.1
20260503174449 60 356 2.6 3.5 0.00 0.00 0.00 37 1017.3
20260503173944 59 331 7.0 11.3 0.00 0.00 0.00 39 1017.4
20260503173440 59 232 5.2 7.0 0.00 0.00 0.00 40 1017.5
20260503172937 59 336 8.7 11.3 0.00 0.00 0.00 40 1017.4
20260503172435 60 359 8.7 13.9 0.00 0.00 0.00 39 1017.5
20260503171931 59 344 6.1 7.8 0.00 0.00 0.00 39 1017.4
20260503171428 59 301 6.1 7.0 0.00 0.00 0.00 40 1017.5
20260503170926 59 338 7.0 7.8 0.00 0.00 0.00 40 1017.5
20260503170421 59 297 5.2 7.0 0.00 0.00 0.00 42 1017.7
20260503150814 56 357 13.0 15.6 0.00 0.00 0.00 41 1018.0
20260503150309 55 32 9.6 11.3 0.00 0.00 0.00 44 1018.1
20260503140234 54 344 7.0 7.8 0.00 0.00 0.00 47 1017.8
20260503131204 53 8 9.6 12.2 0.00 0.00 0.00 51 1017.5
20260503130701 53 352 5.2 7.0 0.00 0.00 0.00 49 1017.6
20260503130159 53 9 6.1 7.0 0.00 0.00 0.00 50 1017.5
20260503120124 52 0 4.3 5.2 0.00 0.00 0.00 54 1016.9
20260503110551 51 353 7.8 9.6 0.00 0.00 0.00 60 1016.1
20260503090437 48 336 2.6 2.6 0.00 0.00 0.00 82 1014.4
20260503081404 48 335 1.7 2.6 0.00 0.00 0.00 83 1013.6
20260503080901 48 51 0.0 0.9 0.00 0.00 0.00 82 1013.7
20260503080358 48 29 0.9 1.7 0.00 0.00 0.00 81 1013.4
20260503072834 49 349 1.7 1.7 0.00 0.00 0.00 79 1013.0
20260503072331 49 315 2.6 3.5 0.00 0.00 0.00 80 1013.0
20260503071827 49 348 3.5 3.5 0.00 0.00 0.00 79 1012.9
20260503071325 49 331 3.5 3.5 0.00 0.00 0.00 79 1012.9
20260503070821 49 324 2.6 2.6 0.00 0.00 0.00 79 1013.0
20260503070319 49 352 2.6 2.6 0.00 0.00 0.00 80 1013.0
20260503060244 49 6 1.7 1.7 0.00 0.00 0.00 82 1012.5
20260503054731 50 46 0.0 0.0 0.00 0.00 0.00 80 1012.3
20260503054228 50 10 0.9 0.9 0.00 0.00 0.00 80 1012.3
20260503053726 50 9 0.9 1.7 0.00 0.00 0.00 79 1012.3
20260503053225 51 347 1.7 1.7 0.00 0.00 0.00 78 1012.3
20260503052721 51 334 1.7 1.7 0.00 0.00 0.00 76 1012.7
20260503052218 51 359 1.7 2.6 0.00 0.00 0.00 76 1012.5
20260503051713 51 325 1.7 1.7 0.00 0.00 0.00 76 1012.6
20260503051211 52 338 1.7 1.7 0.00 0.00 0.00 76 1012.5
20260503050708 52 352 1.7 1.7 0.00 0.00 0.00 75 1012.6
20260503050204 52 354 0.9 0.9 0.00 0.00 0.00 75 1012.7
20260503045702 52 347 2.6 2.6 0.00 0.00 0.00 75 1012.6
20260503045159 52 352 1.7 2.6 0.00 0.00 0.00 75 1012.5
20260503044655 52 342 1.7 1.7 0.00 0.00 0.00 75 1012.7
20260503044152 52 334 1.7 1.7 0.00 0.00 0.00 79 1012.5
20260503043649 52 352 0.9 1.7 0.00 0.00 0.00 74 1012.7
20260503043146 53 355 1.7 1.7 0.00 0.00 0.00 74 1012.6
20260503042642 53 30 0.9 0.9 0.00 0.00 0.00 74 1012.6
20260503042138 53 344 1.7 1.7 0.00 0.00 0.00 73 1012.8
20260503041634 53 334 2.6 2.6 0.00 0.00 0.00 73 1012.5
20260503041133 53 12 2.6 2.6 0.00 0.00 0.00 73 1012.5
20260503040630 53 332 2.6 3.5 0.00 0.00 0.00 75 1012.5
20260503040128 53 351 2.6 2.6 0.00 0.00 0.00 74 1012.6
20260503035624 53 349 1.7 2.6 0.00 0.14 0.14 74 1012.5
20260503035122 52 0 0.9 1.7 0.00 0.14 0.14 76 1012.5
20260503034618 53 34 0.9 0.9 0.00 0.14 0.14 76 1012.3
20260503034116 53 24 0.9 1.7 0.00 0.14 0.14 73 1012.6
20260503033613 53 16 0.9 0.9 0.00 0.14 0.14 72 1012.5
20260503033110 53 358 0.9 0.9 0.00 0.14 0.14 73 1012.4
20260503032609 53 329 1.7 1.7 0.00 0.14 0.14 74 1012.8
20260503032107 53 330 2.6 3.5 0.00 0.14 0.14 74 1012.4
20260503031604 53 326 1.7 1.7 0.00 0.14 0.14 74 1012.3
20260503031102 53 20 0.9 1.7 0.00 0.14 0.14 75 1012.4
20260503030557 53 18 0.9 0.9 0.00 0.14 0.14 75 1012.5
20260503030054 53 17 0.9 0.9 0.00 0.14 0.14 75 1012.3
20260503025551 53 359 0.9 1.7 0.00 0.14 0.14 75 1012.3
20260503025049 53 25 1.7 1.7 0.00 0.14 0.14 74 1012.4
20260503024544 53 343 0.9 1.7 0.00 0.14 0.14 74 1012.7
20260503024042 53 31 0.9 0.9 0.00 0.14 0.14 73 1012.7
20260503023538 53 3 1.7 1.7 0.00 0.14 0.14 72 1012.6
20260503023036 53 4 0.9 1.7 0.00 0.14 0.14 72 1012.6
20260503022532 53 10 0.9 1.7 0.00 0.14 0.14 73 1012.5
20260503022027 53 350 1.7 1.7 0.00 0.14 0.14 73 1012.7
20260503021525 53 354 1.7 1.7 0.00 0.14 0.14 72 1012.7
20260503021021 53 349 1.7 1.7 0.00 0.14 0.14 72 1012.5
20260503020519 53 0 1.7 1.7 0.00 0.14 0.14 72 1012.7
20260503020015 53 354 1.7 1.7 0.00 0.14 0.14 72 1012.6
20260503015512 53 351 2.6 2.6 0.00 0.14 0.14 72 1012.7
20260503015009 52 2 1.7 1.7 0.00 0.14 0.14 78 1012.4
20260503014505 52 72 0.0 0.0 0.00 0.14 0.14 82 1012.3
20260503014003 51 42 0.0 0.9 0.00 0.14 0.14 81 1012.4
20260503013500 51 59 0.0 0.0 0.00 0.14 0.14 81 1012.3
20260503012957 51 66 0.0 0.0 0.00 0.14 0.14 81 1012.3